• Em Portugal
  • Lista de países
  • Para 7 dias
  • Temperatura da água
  • Mapas de satélite
  • Mapa do tempo
  • Widgets de tempo
  • user-avatar
    Iniciar Sessão

    Previsão horária em Karibib

    Hoje, 11 Dezembro, Segunda-feira

    Tempo Temperatura Precipitação Vento Pressão Humidade
    00:00 +27°C° 0 mm 2 m/s 664 mmHg 42%
    01:00 +26°C° 0 mm 1 m/s 663 mmHg 43%
    02:00 +25°C° 0 mm 1 m/s 663 mmHg 45%
    03:00 +25°C° 0 mm 1 m/s 663 mmHg 46%
    04:00 +24°C° 0 mm 1 m/s 662 mmHg 47%
    05:00 +25°C° 0 mm 1 m/s 663 mmHg 42%
    06:00 +27°C° 0 mm 1 m/s 663 mmHg 37%
    07:00 +26°C° 0 mm 0 m/s 664 mmHg 32%
    08:00 +30°C° 0 mm 1 m/s 665 mmHg 26%
    09:00 +32°C° 0 mm 1 m/s 665 mmHg 21%
    10:00 +33°C° 0 mm 1 m/s 665 mmHg 15%
    11:00 +35°C° 0 mm 3 m/s 665 mmHg 15%
    12:00 +36°C° 0 mm 4 m/s 665 mmHg 15%
    13:00 +37°C° 0 mm 5 m/s 665 mmHg 15%
    14:00 +36°C° 0 mm 6 m/s 664 mmHg 17%
    15:00 +35°C° 0 mm 7 m/s 664 mmHg 18%
    16:00 +34°C° 0 mm 8 m/s 663 mmHg 19%
    17:00 +32°C° 0 mm 7 m/s 663 mmHg 22%
    18:00 +29°C° 0 mm 6 m/s 663 mmHg 24%
    19:00 +27°C° 0 mm 5 m/s 663 mmHg 26%
    20:00 +26°C° 0 mm 4 m/s 663 mmHg 28%
    21:00 +25°C° 0 mm 3 m/s 663 mmHg 29%
    22:00 +25°C° 0 mm 2 m/s 664 mmHg 30%
    23:00 +25°C° 0 mm 2 m/s 663 mmHg 30%

    Amanhã, 12 Dezembro, Terça-feira

    Tempo Temperatura Precipitação Vento Pressão Humidade
    00:00 +25°C° 0 mm 1 m/s 663 mmHg 29%
    01:00 +25°C° 0 mm 1 m/s 663 mmHg 28%
    02:00 +25°C° 0 mm 1 m/s 663 mmHg 28%
    03:00 +25°C° 0 mm 1 m/s 663 mmHg 28%
    04:00 +25°C° 0 mm 1 m/s 662 mmHg 28%
    05:00 +25°C° 0 mm 1 m/s 663 mmHg 27%
    06:00 +25°C° 0 mm 1 m/s 663 mmHg 27%
    07:00 +26°C° 0 mm 1 m/s 663 mmHg 26%
    08:00 +27°C° 0 mm 1 m/s 664 mmHg 23%
    09:00 +29°C° 0 mm 1 m/s 664 mmHg 20%
    10:00 +31°C° 0 mm 2 m/s 665 mmHg 17%
    11:00 +33°C° 0 mm 3 m/s 665 mmHg 16%
    12:00 +34°C° 0 mm 3 m/s 664 mmHg 15%
    13:00 +35°C° 0 mm 4 m/s 664 mmHg 14%
    14:00 +35°C° 0 mm 5 m/s 664 mmHg 15%
    15:00 +34°C° 0 mm 6 m/s 663 mmHg 16%
    16:00 +34°C° 0 mm 6 m/s 663 mmHg 18%
    17:00 +32°C° 0 mm 6 m/s 663 mmHg 20%
    18:00 +30°C° 0 mm 5 m/s 663 mmHg 23%
    19:00 +28°C° 0 mm 5 m/s 662 mmHg 26%
    20:00 +27°C° 0 mm 4 m/s 663 mmHg 29%
    21:00 +26°C° 0 mm 3 m/s 663 mmHg 31%
    22:00 +25°C° 0 mm 3 m/s 664 mmHg 34%
    23:00 +25°C° 0 mm 2 m/s 664 mmHg 35%

    Depois de amanhã, 13 Dezembro, Quarta-feira

    Tempo Temperatura Precipitação Vento Pressão Humidade
    00:00 +24°C° 0 mm 2 m/s 663 mmHg 37%
    01:00 +24°C° 0 mm 2 m/s 663 mmHg 39%
    02:00 +23°C° 0 mm 2 m/s 663 mmHg 40%
    03:00 +23°C° 0 mm 2 m/s 663 mmHg 41%
    04:00 +21°C° 0 mm 2 m/s 663 mmHg 43%
    05:00 +23°C° 0 mm 1 m/s 663 mmHg 41%
    06:00 +23°C° 0 mm 1 m/s 663 mmHg 40%
    07:00 +23°C° 0 mm 1 m/s 664 mmHg 39%
    08:00 +26°C° 0 mm 2 m/s 664 mmHg 31%
    09:00 +28°C° 0 mm 2 m/s 665 mmHg 23%
    10:00 +30°C° 0 mm 2 m/s 665 mmHg 15%
    11:00 +31°C° 0 mm 3 m/s 665 mmHg 13%
    12:00 +33°C° 0 mm 4 m/s 665 mmHg 12%
    13:00 +35°C° 0 mm 5 m/s 665 mmHg 10%
    14:00 +34°C° 0 mm 6 m/s 664 mmHg 11%
    15:00 +34°C° 0 mm 7 m/s 664 mmHg 12%
    16:00 +33°C° 0 mm 8 m/s 664 mmHg 13%
    17:00 +30°C° 0 mm 7 m/s 664 mmHg 16%
    18:00 +28°C° 0 mm 6 m/s 664 mmHg 19%
    19:00 +26°C° 0 mm 5 m/s 664 mmHg 23%
    20:00 +25°C° 0 mm 4 m/s 664 mmHg 25%
    21:00 +24°C° 0 mm 3 m/s 665 mmHg 27%
    22:00 +23°C° 0 mm 2 m/s 665 mmHg 29%
    23:00 +23°C° 0 mm 2 m/s 665 mmHg 29%

    14 Dezembro, Quinta-feira

    Tempo Temperatura Precipitação Vento Pressão Humidade
    00:00 +22°C° 0 mm 1 m/s 664 mmHg 30%
    01:00 +21°C° 0 mm 1 m/s 664 mmHg 31%
    02:00 +21°C° 0 mm 1 m/s 663 mmHg 31%
    03:00 +18°C° 0 mm 0 m/s 663 mmHg 32%
    04:00 +17°C° 0 mm 0 m/s 663 mmHg 32%
    05:00 +19°C° 0 mm 0 m/s 663 mmHg 29%
    06:00 +20°C° 0 mm 0 m/s 664 mmHg 25%
    07:00 +21°C° 0 mm 0 m/s 665 mmHg 22%
    08:00 +24°C° 0 mm 0 m/s 665 mmHg 18%
    09:00 +28°C° 0 mm 1 m/s 665 mmHg 14%
    10:00 +30°C° 0 mm 1 m/s 666 mmHg 10%
    11:00 +31°C° 0 mm 1 m/s 666 mmHg 10%
    12:00 +32°C° 0 mm 1 m/s 665 mmHg 9%
    13:00 +34°C° 0 mm 1 m/s 665 mmHg 8%
    14:00 +35°C° 0 mm 3 m/s 665 mmHg 9%
    15:00 +35°C° 0 mm 4 m/s 664 mmHg 9%
    16:00 +35°C° 0 mm 5 m/s 664 mmHg 10%
    17:00 +32°C° 0 mm 5 m/s 664 mmHg 14%
    18:00 +29°C° 0 mm 5 m/s 664 mmHg 19%
    19:00 +27°C° 0 mm 5 m/s 663 mmHg 23%
    20:00 +26°C° 0 mm 4 m/s 664 mmHg 24%
    21:00 +25°C° 0 mm 3 m/s 664 mmHg 26%
    22:00 +24°C° 0 mm 2 m/s 664 mmHg 27%
    23:00 +24°C° 0 mm 2 m/s 664 mmHg 27%

    15 Dezembro, Sexta-feira

    Tempo Temperatura Precipitação Vento Pressão Humidade
    00:00 +23°C° 0 mm 1 m/s 664 mmHg 27%
    01:00 +23°C° 0 mm 1 m/s 663 mmHg 26%
    02:00 +22°C° 0 mm 1 m/s 663 mmHg 26%
    03:00 +22°C° 0 mm 1 m/s 663 mmHg 26%
    04:00 +21°C° 0 mm 1 m/s 662 mmHg 26%
    05:00 +21°C° 0 mm 0 m/s 663 mmHg 24%
    06:00 +22°C° 0 mm 0 m/s 663 mmHg 22%
    07:00 +23°C° 0 mm 0 m/s 664 mmHg 20%
    08:00 +27°C° 0 mm 1 m/s 664 mmHg 18%
    09:00 +29°C° 0 mm 1 m/s 665 mmHg 17%
    10:00 +31°C° 0 mm 2 m/s 665 mmHg 15%
    11:00 +34°C° 0 mm 3 m/s 665 mmHg 13%
    12:00 +36°C° 0 mm 4 m/s 665 mmHg 10%
    13:00 +39°C° 0 mm 5 m/s 665 mmHg 7%
    14:00 +38°C° 0 mm 6 m/s 664 mmHg 8%
    15:00 +38°C° 0 mm 6 m/s 664 mmHg 9%
    16:00 +36°C° 0 mm 7 m/s 664 mmHg 10%
    17:00 +34°C° 0 mm 6 m/s 664 mmHg 14%
    18:00 +30°C° 0 mm 6 m/s 664 mmHg 19%
    19:00 +28°C° 0 mm 5 m/s 664 mmHg 23%
    20:00 +27°C° 0 mm 4 m/s 664 mmHg 24%
    21:00 +25°C° 0 mm 3 m/s 664 mmHg 25%
    22:00 +24°C° 0 mm 2 m/s 664 mmHg 26%
    23:00 +24°C° 0 mm 2 m/s 664 mmHg 25%

    16 Dezembro, Sábado

    Tempo Temperatura Precipitação Vento Pressão Humidade
    00:00 +23°C° 0 mm 1 m/s 663 mmHg 25%
    01:00 +23°C° 0 mm 1 m/s 663 mmHg 25%
    02:00 +22°C° 0 mm 1 m/s 663 mmHg 24%
    03:00 +20°C° 0 mm 0 m/s 662 mmHg 24%
    04:00 +19°C° 0 mm 0 m/s 662 mmHg 23%
    05:00 +20°C° 0 mm 0 m/s 663 mmHg 21%
    06:00 +22°C° 0 mm 0 m/s 663 mmHg 18%
    07:00 +23°C° 0 mm 0 m/s 664 mmHg 15%
    08:00 +25°C° 0 mm 0 m/s 664 mmHg 13%
    09:00 +30°C° 0 mm 1 m/s 665 mmHg 10%
    10:00 +32°C° 0 mm 1 m/s 665 mmHg 8%
    11:00 +34°C° 0 mm 2 m/s 665 mmHg 8%
    12:00 +36°C° 0 mm 3 m/s 665 mmHg 8%
    13:00 +37°C° 0 mm 5 m/s 665 mmHg 7%
    14:00 +36°C° 0 mm 6 m/s 664 mmHg 9%
    15:00 +36°C° 0 mm 7 m/s 664 mmHg 10%
    16:00 +35°C° 0 mm 8 m/s 663 mmHg 12%
    17:00 +33°C° 0 mm 7 m/s 664 mmHg 16%
    18:00 +29°C° 0 mm 6 m/s 664 mmHg 20%
    19:00 +27°C° 0 mm 5 m/s 664 mmHg 25%
    20:00 +26°C° 0 mm 3 m/s 664 mmHg 26%
    21:00 +25°C° 0 mm 2 m/s 665 mmHg 27%
    22:00 +25°C° 0 mm 1 m/s 665 mmHg 28%
    23:00 +24°C° 0 mm 1 m/s 664 mmHg 29%
    Mostrar mais